Regional Weather Roundup
Issued by NWS Cleveland, OH

Current Version | Previous Version | Text Only | Print | Product List | Glossary On
Versions: 1 2 3 4 5 6 7 8 9 10 11 12 13 14 15 16 17 18 19 20 21 22 23 24 25 26 27 28 29 30 31 32 33 34 35 36 37 38 39 40 41 42 43 44 45 46 47 48 49 50
000
ASUS41 KCLE 210512
RWRCLE
OHIO REGIONAL WEATHER ROUNDUP
NATIONAL WEATHER SERVICE WILMINGTON, OH
100 AM EDT WED OCT 21 2020

NOTE: "FAIR" INDICATES FEW OR NO CLOUDS BELOW 12,000 FEET WITH NO
SIGNIFICANT WEATHER AND/OR OBSTRUCTIONS TO VISIBILITY.

OHZ001>008-015>018-024>027-034-035-043-044-210600-
   NORTHWEST OHIO

CITY           SKY/WX    TMP DP  RH WIND       PRES   REMARKS
DEFIANCE       RAIN      54  51  90 SE6       29.98F FOG
FINDLAY        LGT RAIN  57  55  93 S16       30.03F
TOLEDO EXPRESS HVY RAIN  52  49  89 SE8       30.02F FOG
TOLEDO EXEC    HVY RAIN  51  50  96 SE8       30.05F FOG
LIMA             N/A    N/A N/A N/A MISG      30.03S
$$

OHZ009>014-019>023-028>033-038-089-210600-
   NORTHEAST OHIO

CITY           SKY/WX    TMP DP  RH WIND       PRES   REMARKS
CLE-HOPKINS    LGT RAIN  55  53  93 S9        30.06F
CLE-LAKEFRONT  LGT RAIN  56  51  84 S18G24    30.07F
CUY CO. ARPT   CLOUDY    55  53  94 SE13      30.10F
LORAIN-ELYRIA  LGT RAIN  54  49  83 S13       30.09F
ASHTABULA      CLOUDY    54  53  97 S9        30.13F
AKRON-CANTON   CLOUDY    56  54  93 SE6       30.12F FOG
WOOSTER        CLOUDY    55  54  96 S5        30.12F FOG
MANSFIELD      TSTM      58  58 100 S7        30.10F FOG
YOUNGSTOWN     CLOUDY    57  54  89 S9        30.15R
$$

OHZ042-051>053-060>062-070>072-077>081-210600-
  SOUTHWEST OHIO

CITY           SKY/WX    TMP DP  RH WIND       PRES   REMARKS
CINC-COVINGTON MOCLDY    59  57  93 S8        30.09F
CINC-LUNKEN    FOG       56  55  97 CALM      30.10F VSB 1/2
HAMILTON       FOG       57  56  96 SE3       30.09F VSB 1/2
DAYTON         FOG       57  57 100 S6        30.08F VSB 3/4
WRIGHT-PAT AFB CLOUDY    56  55  98 SE6       30.07F
DAYTON GENERAL FAIR      60  58  92 S10       30.08F
WILMINGTON     FAIR      60  58  92 S7        30.10F
$$

OHZ036-037-039>041-045>050-054>059-063>069-073>076-082>088-210600-
  CENTRAL AND SOUTHEAST OHIO

CITY           SKY/WX    TMP DP  RH WIND       PRES   REMARKS
COLUMBUS       CLOUDY    57  57 100 S3        30.11F
OSU AIRPORT    CLOUDY    56  56 100 S3        30.10F
BOLTON FIELD   FOG       55  55 100 S3        30.11F VSB 3/4
RICKENBACK AFB CLOUDY    53  53 100 S3        30.10F FOG
NEWARK         CLOUDY    56  53  90 CALM      30.11F FOG
MARION         CLOUDY    57  56  96 SW8       30.10R
LANCASTER      FOG       57  56  96 SE8       30.12F VSB 1/4
ZANESVILLE     FOG       57  57 100 CALM      30.13F VSB 1/2
NEW PHILLY     CLOUDY    56  56 100 SE7       30.14F
$$




USA.gov is the U.S. government's official web portal to all federal, state and local government web resources and services.